Location: Chihuahua
(28.6330°N, 106.0830°W)
Time: 17:30:45
(UTC-07:00)

Daily predictions for brighter satellites

Satellite Brightness Start Highest point End
(mag) Time Altitude Azimuth Time Altitude Azimuth Time Altitude Azimuth
Cosmos 1634 Rocket 4.2 17:20:17 10° S 17:26:27 84° W 17:32:42 10° N
DELTA 2 R/B (1) 4.0 17:22:18 10° WSW 17:27:47 58° NNW 17:33:17 10° NE
Ariane Rocket 3.1 17:23:00 10° SSE 17:27:57 56° ENE 17:32:53 10° N
Cosmos 2298 Rocket 4.1 17:24:07 10° S 17:29:25 72° ESE 17:34:42 10° NNE
Fermi 4.5 17:29:10 10° W 17:33:09 52° S 17:37:07 10° ESE
Cosmos 1655 Rocket 4.5 17:28:33 10° NNE 17:34:31 40° E 17:40:27 10° SSE
SJ 16-02 3.2 17:33:03 10° ESE 17:34:46 12° E 17:36:30 10° ENE
Okean 1 Rocket 3.3 17:31:07 10° N 17:35:37 80° W 17:40:05 10° S
SEDSat Delta rocket 4.5 17:30:26 10° W 17:35:43 46° SSW 17:40:19 10° SE
BREEZE-M DEB (TANK) 3.6 17:34:34 10° NNW 17:37:08 33° NE 17:43:12 10° ESE
Meteor 1-4 Rocket 2.7 17:34:03 10° N 17:37:42 79° W 17:41:17 10° S
CSL-04 Debris 4.1 17:33:51 10° SSE 17:39:14 78° ENE 17:44:37 10° N
Cosmos 1937 Rocket 3.7 17:36:51 10° SSW 17:42:03 77° WNW 17:47:14 10° NNE
AQUARIUS 4.1 17:38:25 10° SSE 17:42:54 78° ENE 17:47:23 10° N
ATLAS CENTAUR R/B 1.4 17:39:43 10° NNW 17:43:49 84° ENE 17:48:11 10° SSE
Okean 1 3.7 17:40:18 10° SSW 17:44:15 68° W 17:48:12 10° N
Atlas Centaur 2 1.5 17:42:00 10° W 17:46:59 80° N 17:50:40 12° ENE
EO 1 Del DPAF 3.8 17:44:07 10° NNE 17:47:42 38° E 17:51:15 10° S
Cosmos 2112 Rocket 4.4 17:43:36 10° NNW 17:48:51 72° WSW 17:54:08 10° S
Cosmos 1536 Rocket 4.4 17:47:35 10° SSE 17:51:25 30° E 17:55:13 10° NNE
CZ-4 R/B 1.1 17:50:23 10° SSE 17:54:11 78° ENE 17:58:02 10° N
Cosmos 1743 3.2 17:55:18 10° NNE 17:58:56 38° E 18:02:34 10° SSE
Cosmos 1975 2.7 17:57:09 10° N 18:01:11 78° E 18:05:13 10° S
PSLV R/B 3.1 17:59:28 10° WSW 18:02:36 75° NNW 18:04:32 21° NE
Cosmos 2026 Rocket 4.3 17:56:42 10° N 18:03:03 77° W 18:09:20 10° S
CZ-4 R/B 4.4 18:00:54 10° SSE 18:04:59 64° ENE 18:09:06 10° N
SKYMED 2 3.5 18:01:29 10° NNE 18:05:51 88° ESE 18:10:10 10° SSW
Cosmos 1697 Rocket 3.9 18:04:36 10° SSE 18:08:49 22° E 18:10:38 19° ENE
Lacrosse 5 2.7 18:07:30 10° NW 18:12:24 52° WSW 18:17:17 10° SSE
FENGYUN 3A 3.9 18:09:16 10° SE 18:14:20 43° ENE 18:19:24 10° N
Cosmos 372 Rocket 4.2 18:14:02 10° S 18:19:03 49° ESE 18:22:41 18° NE
SPOT 3 Rocket 3.6 18:15:29 10° SSE 18:20:30 52° ENE 18:25:32 10° N
GOES 2 Rocket 3.6 18:16:43 10° WSW 18:21:27 71° SSE 18:24:57 24° E
Cosmos 1271 Rocket 2.5 18:20:09 10° N 18:23:55 72° E 18:27:44 10° SSE
Intelsat 5-3 Rocket 4.0 18:21:36 10° SW 18:24:47 18° S 18:26:18 13° SE
Cosmos 1932 4.4 18:23:16 10° NNW 18:29:31 60° ENE 18:35:38 10° SE
METEOR-M 4.3 18:24:44 10° S 18:30:02 74° WSW 18:35:23 10° NNW
Cosmos 2219 3.1 18:24:38 10° NNW 18:30:16 83° ENE 18:35:53 10° SSE
Cosmos 2227 Rocket 3.1 18:27:01 10° N 18:30:57 27° NE 18:30:57 27° NE
ASTRO E2 3.1 18:29:21 10° W 18:33:18 57° SSW 18:35:12 28° SE
BREEZE-M DEB (TANK) 3.9 18:31:00 10° NNW 18:34:53 46° NE 18:49:00 10° ESE
YAOGAN 1 3.7 18:30:59 10° S 18:35:08 46° W 18:39:17 10° NNW
Cosmos 1455 Rocket 3.2 18:33:16 10° N 18:37:41 76° W 18:42:02 10° S
Meteor 2-9 Rocket 4.0 18:35:21 10° N 18:40:50 67° E 18:46:09 10° SSE
Cosmos 1544 Rocket 4.0 18:36:47 10° NNW 18:41:05 61° W 18:45:20 10° S
NOAA 12 4.0 18:36:14 10° SSE 18:41:32 82° ENE 18:46:48 10° N
Thor Agena Rocket 3.6 18:41:57 32° NE 18:44:11 57° ESE 18:49:21 10° S
Cosmos 1980 Rocket 3.4 18:42:15 10° SSE 18:45:32 24° SE 18:45:32 24° SE
ERS-2 3.1 18:45:11 10° S 18:48:43 46° W 18:52:15 10° NNW
ATLAS 2AS CENTAUR R/B 4.2 18:45:21 10° WSW 18:52:15 36° NW 18:59:35 10° N
Meteor 2-4 Rocket 4.4 18:46:51 10° SSW 18:52:16 53° W 18:57:35 10° N
Cosmos 1607 4.5 18:49:34 10° NW 18:55:56 61° WSW 19:02:10 10° SSE
ALOS 3.0 18:55:05 10° S 18:59:37 53° W 19:04:11 10° NNW
Cosmos 2297 Rocket 3.6 18:54:19 10° N 18:56:34 23° N 18:56:34 23° N
Gbstr 26 Del rocket 4.3 18:53:45 10° SW 19:01:51 89° NW 19:04:43 43° NE
Hubble Space Telescope 1.0 18:59:35 10° W 19:03:14 67° W 19:03:14 67° W
Cosmos 1241 Rocket 4.3 19:03:48 10° SSW 19:10:14 84° ESE 19:11:40 57° NNE
SJ 16-02 2.7 19:08:53 10° SW 19:12:55 37° WNW 19:14:25 28° NNW
NOSS 3-4 (A) 3.3 19:06:57 10° SSW 19:13:10 84° ESE 19:14:08 65° NE
NOSS 3-4 (C) 3.3 19:07:03 10° SSW 19:13:16 83° ESE 19:14:11 66° NE
ATLAS 3B R/B 3.0 19:07:41 10° NNW 19:12:37 44° NNE 19:12:37 44° NNE
Nadezhda 2 Rocket 4.3 19:09:03 10° N 19:15:21 74° E 19:21:44 10° S
FengYun 1-2 T 4.4 19:23:13 10° S 19:28:44 70° WSW 19:34:20 10° NNW
Atlas Centaur 2 3.6 19:31:41 10° W 19:33:19 22° WNW 19:33:19 22° WNW
Skynet4D Del rocket 4.2 19:31:05 10° WSW 19:35:17 50° SW 19:35:17 50° SW
USA 234 4.3 19:46:32 33° S 19:46:32 33° S 19:50:14 10° SSW
Cosmos 1697 Rocket 3.9 19:47:18 10° SW 19:52:26 36° WNW 19:52:26 36° WNW
Cosmos 2227 Rocket 4.4 20:10:55 10° NW 20:12:57 20° WNW 20:12:57 20° WNW
